Home > Weather > Pasadena > Past weeks

Flag for USA Past Weather in Pasadena, Texas, USA — Yesterday and Last 2 Weeks

Now
91 °F

Scattered showers. Partly sunny.


Feels Like: 105 °F
Forecast: 80 / 90 °F
Wind: 13 mph from East

Location: Houston / Ellington

Current Time: Aug 24, 2016 at 3:09:07 PM

Latest Report: Aug 24, 2016 at 1:50 PM


Visibility: 10 mi

Pressure: 30.11 "Hg

Humidity: 63%

Dew Point: 77 °F

Location of PasadenaLocation

Past Weather in Pasadena — Graph

°F

Pasadena Temperature Yesterday

Maximum temperature yesterday: 91 °F (at 1:50 PM)
Minimum temperature yesterday: 79 °F (at 4:50 AM)
Average temperature yesterday: 85 °F

High & Low Weather Summary for the Past Weeks

 TemperatureHumidityPressure
High99 °F (Aug 9, 1:50 PM)100% (Aug 21, 7:50 AM)30.18 "Hg (Aug 21, 7:50 AM)
Low72 °F (Aug 22, 12:50 PM)39% (Aug 9, 1:50 PM)29.74 "Hg (Aug 13, 4:50 PM)
Average83 °F79%29.99 "Hg
* Reported Aug 9 1:50 PM — Aug 24 1:50 PM, Pasadena, Weather by CustomWeather, © 2016

Note: Actual official high and low records may vary slightly from our data, if they occured in-between our weather recording intervals... More about our weather records

Advertising

Pasadena Weather History for the Previous 24 Hours

Scroll right to see more
 ConditionsComfort  
Time TempWeatherWind HumidityBarometerVisibility
1:50 PM
Wed, Aug 24
91 °FScattered showers. Partly sunny.13 mph63%30.11 "Hg10 mi
12:50 PM90 °FPartly sunny.9 mph67%30.14 "Hg10 mi
11:50 AM90 °FPartly sunny.No wind67%30.15 "Hg10 mi
10:50 AM88 °FPartly sunny.5 mph75%30.15 "Hg10 mi
9:50 AM86 °FPartly sunny.5 mph75%30.14 "Hg10 mi
8:50 AM81 °FPassing clouds.3 mph84%30.12 "Hg10 mi
7:50 AM81 °FPassing clouds.No wind84%30.11 "Hg10 mi
6:50 AM81 °FPassing clouds.No wind89%30.11 "Hg10 mi
5:50 AM81 °FPassing clouds.No wind89%30.12 "Hg10 mi
4:50 AM81 °FPassing clouds.No wind89%30.12 "Hg10 mi
3:50 AM81 °FPassing clouds.No wind89%30.13 "Hg10 mi
1:50 AM81 °FPassing clouds.No wind89%30.15 "Hg10 mi
11:50 PM
Tue, Aug 23
82 °FPassing clouds.No wind84%30.15 "Hg10 mi
10:50 PM82 °FPassing clouds.No wind84%30.14 "Hg10 mi
9:50 PM82 °FPassing clouds.3 mph84%30.13 "Hg10 mi
8:50 PM82 °FScattered clouds.3 mph84%30.12 "Hg10 mi
7:50 PM86 °FScattered clouds.7 mph75%30.11 "Hg10 mi
6:50 PM88 °FScattered clouds.7 mph70%30.11 "Hg10 mi
5:50 PM88 °FBroken clouds.7 mph70%30.12 "Hg10 mi
4:50 PM88 °FBroken clouds.14 mph70%30.11 "Hg10 mi
3:50 PM88 °FThunderstorms. Partly sunny.9 mph70%30.12 "Hg10 mi
Weather by CustomWeather, © 2016

See weather overviewHow to use our weather pages